Regional Weather Roundup
Issued by NWS

Home | Current Version | Previous Version | Text Only | Print | Product List | Glossary Off
Versions: 1 2 3 4 5 6 7 8 9 10 11 12 13 14 15 16 17 18 19 20 21 22 23 24 25 26 27 28 29 30 31 32 33 34 35 36 37 38 39 40 41 42 43 44 45 46 47 48 49 50

443
ASUS44 KMEG 251600
RWRTN
TENNESSEE HOURLY STATE WEATHER ROUNDUP
NATIONAL WEATHER SERVICE MEMPHIS TN
1100 AM CDT FRI MAY 25 2018

TNZ002-004-019-021-049-052-054-088>092-251700-
WEST TENNESSEE

CITY           SKY/WX    TMP DP  RH WIND       PRES   REMARKS
MEMPHIS INTL   PTSUNNY   82  72  71 CALM      30.01R
NWS MEMPHIS      N/A     81 N/A N/A MISG        N/A
JACKSON        PTSUNNY   83  71  67 VRB6      30.00F
DYERSBURG      FAIR      81  71  71 SW6       30.01S
$$

TNZ008-025-027-028-033-062-065-066-251700-
NORTH MIDDLE TENNESSEE

CITY           SKY/WX    TMP DP  RH WIND       PRES   REMARKS
NASHVILLE      FAIR      87  65  47 W6        30.01F
CLARKSVILLE    FAIR      83  64  52 W5        30.00S
SMYRNA         FAIR      85  68  56 W6        30.02S
CROSSVILLE     FAIR      77  67  71 VRB7      30.09F
$$

TNZ061-075-076-078-094-096-097-251700-
SOUTH MIDDLE TENNESSEE

CITY           SKY/WX    TMP DP  RH WIND       PRES   REMARKS
$$

TNZ017-018-042-046-047-251700-
NORTHEAST TENNESSEE

CITY           SKY/WX    TMP DP  RH WIND       PRES   REMARKS
TRI CITIES     CLOUDY    77  68  73 N3        30.09F
$$

TNZ012-013-036-069-073-074-251700-
CENTRAL EAST TENNESSEE

CITY           SKY/WX    TMP DP  RH WIND       PRES   REMARKS
KNOXVILLE      FAIR      80  67  64 VRB3      30.04F
OAK RIDGE      FAIR      82  68  62 VRB5      30.06F
$$

TNZ083-085-099-251700-
SOUTHEAST TENNESSEE

CITY           SKY/WX    TMP DP  RH WIND       PRES   REMARKS
CHATTANOOGA    PTSUNNY   80  66  62 VRB6      30.05F
$$

SKY/WX REPORTED AS FAIR MEANS FEW OR NO CLOUDS BELOW
12 THOUSAND FEET.





USA.gov is the U.S. government's official web portal to all federal, state and local government web resources and services.